Location: Newark
(7.1028°S, 35.3258°W)
Time: 08:53:28
(UTC+00:00)

Vanguard 3 - Pass Details

Date: 24 February 2020
Orbit: 508 x 3263 km, 33.4° (Epoch: 08 April)

Event Time Altitude Azimuth Distance (km) Brightness Sun altitude
Rises 02:33:17 0° 232° (SW) 6,361 11.9 -73.2°
Enters shadow 02:39:49 - 216° (SW) 4,866 11.2 -73.2°
Reaches altitude 10° 02:40:24 10° 214° (SW) 4,736 - -73.1°
Maximum altitude 02:47:25 16° 180° (S) 3,510 - -72.9°
Drops below altitude 10° 02:52:41 10° 144° (SE) 3,399 - -72.6°
Sets 02:56:27 0° 122° (ESE) 3,914 - -72.4°
